| time (UTC) | temp F | wind direction | speed MPH | gust MPH | rain 1hr in | rain 24hr in | rain mn in | humidity % | barometer mb |
| 20260506133603 | 57 | 35 | 5.0 | 10.0 | 0.00 | 0.01 | 0.01 | 87 | 1009.8 |
| 20260506133024 | 57 | 36 | 5.0 | 11.0 | 0.00 | 0.01 | 0.01 | 87 | 1009.8 |
| 20260506132403 | 57 | 38 | 6.0 | 11.0 | 0.00 | 0.01 | 0.01 | 86 | 1009.7 |
| 20260506131803 | 57 | 39 | 6.0 | 12.0 | 0.00 | 0.01 | 0.01 | 86 | 1009.5 |
| 20260506131203 | 57 | 38 | 7.0 | 14.0 | 0.00 | 0.01 | 0.01 | 86 | 1009.3 |
| 20260506130624 | 57 | 36 | 7.0 | 14.0 | 0.00 | 0.01 | 0.01 | 86 | 1009.3 |
| 20260506130024 | 57 | 32 | 7.0 | 13.0 | 0.00 | 0.01 | 0.01 | 86 | 1009.2 |
| 20260506125506 | 57 | 30 | 7.0 | 12.0 | 0.00 | 0.01 | 0.01 | 86 | 1009.2 |
| 20260506124803 | 58 | 29 | 5.0 | 11.0 | 0.00 | 0.01 | 0.01 | 86 | 1009.1 |
| 20260506124245 | 58 | 28 | 5.0 | 10.0 | 0.01 | 0.01 | 0.01 | 85 | 1009.1 |
| 20260506123624 | 58 | 27 | 6.0 | 13.0 | 0.01 | 0.01 | 0.01 | 85 | 1008.8 |
| 20260506123045 | 58 | 27 | 6.0 | 13.0 | 0.01 | 0.01 | 0.01 | 85 | 1008.8 |
| 20260506122424 | 58 | 27 | 6.0 | 13.0 | 0.01 | 0.01 | 0.01 | 86 | 1008.7 |
| 20260506121803 | 58 | 27 | 6.0 | 13.0 | 0.01 | 0.01 | 0.01 | 86 | 1008.6 |
| 20260506121203 | 58 | 22 | 7.0 | 14.0 | 0.01 | 0.01 | 0.01 | 86 | 1008.6 |
| 20260506120603 | 58 | 7 | 6.0 | 14.0 | 0.01 | 0.01 | 0.01 | 86 | 1008.6 |
| 20260506120003 | 58 | 357 | 6.0 | 12.0 | 0.01 | 0.01 | 0.01 | 86 | 1008.5 |
| 20260506115445 | 59 | 353 | 7.0 | 13.0 | 0.01 | 0.01 | 0.01 | 86 | 1008.4 |
| 20260506114803 | 59 | 352 | 7.0 | 13.0 | 0.01 | 0.01 | 0.01 | 86 | 1008.3 |
| 20260506114203 | 59 | 349 | 7.0 | 12.0 | 0.00 | 0.00 | 0.00 | 86 | 1008.1 |
| 20260506113603 | 60 | 349 | 6.0 | 11.0 | 0.00 | 0.00 | 0.00 | 86 | 1008.1 |
| 20260506113024 | 60 | 349 | 6.0 | 11.0 | 0.00 | 0.00 | 0.00 | 86 | 1007.8 |
| 20260506112403 | 60 | 348 | 8.0 | 14.0 | 0.00 | 0.00 | 0.00 | 86 | 1007.8 |
| 20260506111845 | 60 | 348 | 7.0 | 14.0 | 0.00 | 0.00 | 0.00 | 86 | 1007.7 |
| 20260506111245 | 60 | 348 | 7.0 | 12.0 | 0.00 | 0.00 | 0.00 | 86 | 1007.6 |
| 20260506110603 | 60 | 351 | 8.0 | 13.0 | 0.00 | 0.00 | 0.00 | 87 | 1007.5 |
| 20260506110045 | 61 | 353 | 7.0 | 13.0 | 0.00 | 0.00 | 0.00 | 87 | 1007.5 |
| 20260506105403 | 61 | 353 | 6.0 | 12.0 | 0.00 | 0.00 | 0.00 | 87 | 1007.4 |
| 20260506104803 | 61 | 353 | 7.0 | 12.0 | 0.00 | 0.00 | 0.00 | 87 | 1007.2 |
| 20260506104203 | 62 | 354 | 7.0 | 13.0 | 0.00 | 0.00 | 0.00 | 87 | 1007.1 |
| 20260506103603 | 62 | 357 | 5.0 | 13.0 | 0.00 | 0.00 | 0.00 | 87 | 1006.9 |
| 20260506103003 | 63 | 357 | 4.0 | 9.0 | 0.00 | 0.00 | 0.00 | 87 | 1007.0 |
| 20260506102403 | 63 | 355 | 5.0 | 12.0 | 0.00 | 0.00 | 0.00 | 87 | 1006.8 |
| 20260506101824 | 63 | 354 | 5.0 | 12.0 | 0.00 | 0.00 | 0.00 | 87 | 1006.7 |
| 20260506101224 | 63 | 350 | 5.0 | 10.0 | 0.00 | 0.00 | 0.00 | 87 | 1006.7 |
| 20260506100603 | 64 | 336 | 5.0 | 12.0 | 0.00 | 0.00 | 0.00 | 87 | 1006.6 |
| 20260506100003 | 64 | 326 | 4.0 | 9.0 | 0.00 | 0.00 | 0.00 | 87 | 1006.6 |
| 20260506095403 | 64 | 323 | 3.0 | 10.0 | 0.00 | 0.00 | 0.00 | 87 | 1006.3 |
| 20260506094824 | 65 | 303 | 5.0 | 13.0 | 0.00 | 0.00 | 0.00 | 87 | 1006.3 |
| 20260506094203 | 65 | 228 | 4.0 | 13.0 | 0.00 | 0.00 | 0.00 | 87 | 1006.2 |
| 20260506093645 | 66 | 198 | 4.0 | 9.0 | 0.00 | 0.00 | 0.00 | 87 | 1006.2 |
| 20260506093003 | 67 | 197 | 5.0 | 9.0 | 0.00 | 0.00 | 0.00 | 87 | 1006.1 |
| 20260506092424 | 67 | 197 | 4.0 | 8.0 | 0.00 | 0.00 | 0.00 | 87 | 1006.0 |
| 20260506091803 | 68 | 197 | 3.0 | 7.0 | 0.00 | 0.00 | 0.00 | 86 | 1005.9 |
| 20260506091224 | 69 | 197 | 2.0 | 7.0 | 0.00 | 0.00 | 0.00 | 86 | 1005.9 |
| 20260506090645 | 69 | 197 | 3.0 | 8.0 | 0.00 | 0.00 | 0.00 | 86 | 1005.8 |
| 20260506090045 | 69 | 197 | 1.0 | 7.0 | 0.00 | 0.00 | 0.00 | 85 | 1005.8 |
| 20260506085403 | 69 | 197 | 2.0 | 7.0 | 0.00 | 0.00 | 0.00 | 85 | 1005.8 |
| 20260506084803 | 69 | 197 | 4.0 | 7.0 | 0.00 | 0.00 | 0.00 | 84 | 1005.8 |
| 20260506084203 | 70 | 197 | 4.0 | 6.0 | 0.00 | 0.00 | 0.00 | 84 | 1005.7 |
| 20260506083624 | 70 | 197 | 5.0 | 7.0 | 0.00 | 0.00 | 0.00 | 84 | 1005.7 |
| 20260506083003 | 70 | 197 | 5.0 | 8.0 | 0.00 | 0.00 | 0.00 | 84 | 1005.6 |
| 20260506082424 | 70 | 196 | 5.0 | 8.0 | 0.00 | 0.00 | 0.00 | 83 | 1005.5 |
| 20260506081803 | 71 | 195 | 4.0 | 8.0 | 0.00 | 0.00 | 0.00 | 83 | 1005.6 |
| 20260506081203 | 71 | 194 | 4.0 | 7.0 | 0.00 | 0.00 | 0.00 | 83 | 1005.6 |
| 20260506080603 | 71 | 194 | 4.0 | 8.0 | 0.00 | 0.00 | 0.00 | 83 | 1005.5 |
| 20260506073003 | 75 | 182 | 5.0 | 10.0 | 0.00 | 0.00 | 0.00 | 85 | 1005.5 |
| 20260506072403 | 75 | 181 | 5.0 | 12.0 | 0.00 | 0.00 | 0.00 | 85 | 1005.7 |
| 20260506071845 | 75 | 180 | 5.0 | 12.0 | 0.00 | 0.00 | 0.00 | 85 | 1005.7 |
| 20260506071224 | 75 | 179 | 3.0 | 9.0 | 0.00 | 0.00 | 0.00 | 85 | 1005.8 |
| 20260506070603 | 75 | 179 | 2.0 | 4.0 | 0.00 | 0.00 | 0.00 | 85 | 1005.9 |
| 20260506062403 | 76 | 179 | 3.0 | 9.0 | 0.00 | 0.00 | 0.00 | 85 | 1005.7 |
| 20260506061803 | 76 | 179 | 6.0 | 10.0 | 0.00 | 0.00 | 0.00 | 85 | 1005.7 |
| 20260506061203 | 76 | 177 | 5.0 | 10.0 | 0.00 | 0.00 | 0.00 | 85 | 1005.8 |
| 20260506060603 | 76 | 175 | 4.0 | 10.0 | 0.00 | 0.00 | 0.00 | 85 | 1005.8 |
| 20260506051245 | 76 | 172 | 4.0 | 9.0 | 0.00 | 0.00 | 0.00 | 86 | 1005.5 |
| 20260506050624 | 76 | 172 | 3.0 | 9.0 | 0.00 | 0.00 | 0.00 | 86 | 1005.6 |
| 20260506044845 | 76 | 172 | 2.0 | 7.0 | 0.00 | 0.00 | 0.00 | 85 | 1005.1 |
| 20260506044203 | 76 | 172 | 3.0 | 10.0 | 0.00 | 0.00 | 0.00 | 86 | 1005.1 |
| 20260506043603 | 76 | 172 | 4.0 | 10.0 | 0.00 | 0.00 | 0.00 | 85 | 1005.0 |
| 20260506043106 | 76 | 172 | 3.0 | 9.0 | 0.00 | 0.00 | 0.00 | 85 | 1005.2 |
| 20260506042424 | 76 | 172 | 3.0 | 9.0 | 0.00 | 0.00 | 0.00 | 85 | 1005.1 |
| 20260506041803 | 76 | 172 | 4.0 | 9.0 | 0.00 | 0.00 | 0.00 | 85 | 1005.0 |
| 20260506041245 | 76 | 172 | 5.0 | 13.0 | 0.00 | 0.00 | 0.00 | 85 | 1005.0 |
| 20260506040624 | 76 | 173 | 5.0 | 11.0 | 0.00 | 0.00 | 0.00 | 84 | 1004.8 |
| 20260506040003 | 76 | 173 | 4.0 | 10.0 | 0.00 | 0.00 | 0.00 | 84 | 1004.8 |
| 20260506035403 | 76 | 173 | 4.0 | 9.0 | 0.00 | 0.00 | 0.00 | 84 | 1004.7 |
| 20260506034824 | 76 | 173 | 4.0 | 9.0 | 0.00 | 0.00 | 0.00 | 84 | 1004.6 |
| 20260506034203 | 76 | 173 | 4.0 | 10.0 | 0.00 | 0.00 | 0.00 | 84 | 1004.4 |
| 20260506033603 | 76 | 173 | 3.0 | 10.0 | 0.00 | 0.00 | 0.00 | 84 | 1004.4 |
| 20260506033024 | 76 | 173 | 3.0 | 10.0 | 0.00 | 0.00 | 0.00 | 84 | 1004.4 |
| 20260506032403 | 76 | 172 | 4.0 | 8.0 | 0.00 | 0.00 | 0.00 | 83 | 1004.3 |
| 20260506031824 | 76 | 171 | 4.0 | 10.0 | 0.00 | 0.00 | 0.00 | 83 | 1004.1 |
| 20260506031203 | 76 | 170 | 4.0 | 10.0 | 0.00 | 0.00 | 0.00 | 84 | 1003.9 |
| 20260506030624 | 76 | 170 | 5.0 | 11.0 | 0.00 | 0.00 | 0.00 | 83 | 1003.7 |
| 20260506030003 | 77 | 170 | 5.0 | 11.0 | 0.00 | 0.00 | 0.00 | 83 | 1003.6 |
| 20260506025403 | 77 | 170 | 5.0 | 12.0 | 0.00 | 0.00 | 0.00 | 82 | 1003.6 |
| 20260506024824 | 77 | 169 | 5.0 | 12.0 | 0.00 | 0.00 | 0.00 | 82 | 1003.5 |
| 20260506024224 | 77 | 169 | 5.0 | 10.0 | 0.00 | 0.00 | 0.00 | 82 | 1003.5 |
| 20260506023603 | 77 | 169 | 5.0 | 12.0 | 0.00 | 0.00 | 0.00 | 82 | 1003.4 |
| 20260506023106 | 77 | 170 | 5.0 | 12.0 | 0.00 | 0.00 | 0.00 | 82 | 1003.2 |
| 20260506022445 | 77 | 170 | 7.0 | 12.0 | 0.00 | 0.00 | 0.00 | 81 | 1002.9 |
| 20260506021845 | 77 | 171 | 7.0 | 12.0 | 0.00 | 0.00 | 0.00 | 81 | 1002.8 |
| 20260506021224 | 78 | 171 | 6.0 | 13.0 | 0.00 | 0.00 | 0.00 | 81 | 1002.9 |
| 20260506020603 | 78 | 169 | 6.0 | 13.0 | 0.00 | 0.00 | 0.00 | 81 | 1002.9 |
| 20260506020045 | 77 | 168 | 5.0 | 13.0 | 0.00 | 0.00 | 0.00 | 81 | 1002.8 |
| 20260506015506 | 78 | 168 | 6.0 | 10.0 | 0.00 | 0.00 | 0.00 | 81 | 1002.9 |
| 20260506014824 | 78 | 168 | 6.0 | 11.0 | 0.00 | 0.00 | 0.00 | 80 | 1002.7 |
| 20260506014224 | 78 | 165 | 7.0 | 15.0 | 0.00 | 0.00 | 0.00 | 80 | 1002.7 |
| 20260506013624 | 78 | 162 | 7.0 | 15.0 | 0.00 | 0.00 | 0.00 | 80 | 1002.5 |
| 20260506013003 | 78 | 162 | 7.0 | 13.0 | 0.00 | 0.00 | 0.00 | 79 | 1002.6 |
| 20260506012506 | 78 | 162 | 7.0 | 13.0 | 0.00 | 0.00 | 0.00 | 79 | 1002.5 |
| 20260506011906 | 79 | 162 | 6.0 | 12.0 | 0.00 | 0.00 | 0.00 | 78 | 1002.4 |
| 20260506011203 | 79 | 162 | 7.0 | 14.0 | 0.00 | 0.00 | 0.00 | 78 | 1002.5 |
| 20260506010603 | 79 | 163 | 6.0 | 14.0 | 0.00 | 0.00 | 0.00 | 78 | 1002.5 |
| 20260506010024 | 79 | 164 | 6.0 | 12.0 | 0.00 | 0.00 | 0.00 | 78 | 1002.5 |
| 20260506005403 | 80 | 164 | 7.0 | 15.0 | 0.00 | 0.00 | 0.00 | 77 | 1002.5 |
| 20260506004803 | 80 | 166 | 7.0 | 17.0 | 0.00 | 0.00 | 0.00 | 76 | 1002.4 |
| 20260506004224 | 80 | 167 | 6.0 | 14.0 | 0.00 | 0.00 | 0.00 | 75 | 1002.4 |
| 20260506003603 | 80 | 167 | 6.0 | 15.0 | 0.00 | 0.00 | 0.00 | 75 | 1002.3 |
| 20260506003024 | 81 | 169 | 7.0 | 15.0 | 0.00 | 0.00 | 0.00 | 74 | 1002.3 |
| 20260506002424 | 81 | 172 | 7.0 | 16.0 | 0.00 | 0.00 | 0.00 | 74 | 1002.3 |
| 20260506001803 | 81 | 175 | 7.0 | 13.0 | 0.00 | 0.00 | 0.00 | 74 | 1002.2 |
| 20260506001203 | 81 | 175 | 6.0 | 13.0 | 0.00 | 0.00 | 0.00 | 74 | 1002.3 |
| 20260506000603 | 81 | 172 | 7.0 | 16.0 | 0.00 | 0.00 | 0.00 | 73 | 1002.1 |
| 20260506000024 | 81 | 170 | 8.0 | 17.0 | 0.00 | 0.00 | 0.00 | 73 | 1002.3 |
| 20260505235403 | 82 | 170 | 9.0 | 21.0 | 0.00 | 0.00 | 0.00 | 72 | 1002.3 |
| 20260505234824 | 82 | 170 | 9.0 | 21.0 | 0.00 | 0.00 | 0.00 | 72 | 1002.2 |
| 20260505234203 | 82 | 170 | 9.0 | 19.0 | 0.00 | 0.00 | 0.00 | 72 | 1002.1 |
| 20260505233624 | 82 | 175 | 8.0 | 15.0 | 0.00 | 0.00 | 0.00 | 72 | 1002.1 |
| 20260505233003 | 82 | 172 | 8.0 | 15.0 | 0.00 | 0.00 | 0.00 | 72 | 1002.1 |
| 20260505232403 | 82 | 171 | 9.0 | 17.0 | 0.00 | 0.00 | 0.00 | 72 | 1002.1 |
| 20260505231803 | 82 | 185 | 9.0 | 18.0 | 0.00 | 0.00 | 0.00 | 71 | 1002.2 |
| 20260505231203 | 82 | 183 | 10.0 | 18.0 | 0.00 | 0.00 | 0.00 | 71 | 1002.2 |
| 20260505230645 | 82 | 168 | 10.0 | 20.0 | 0.00 | 0.00 | 0.00 | 72 | 1001.9 |
| 20260505230024 | 82 | 170 | 10.0 | 20.0 | 0.00 | 0.00 | 0.00 | 72 | 1001.8 |
| 20260505225403 | 82 | 163 | 12.0 | 22.0 | 0.00 | 0.00 | 0.00 | 72 | 1001.8 |
| 20260505224824 | 82 | 165 | 12.0 | 21.0 | 0.00 | 0.00 | 0.00 | 71 | 1001.8 |
| 20260505224203 | 82 | 172 | 9.0 | 19.0 | 0.00 | 0.00 | 0.00 | 71 | 1001.9 |
| 20260505223603 | 83 | 173 | 8.0 | 18.0 | 0.00 | 0.00 | 0.00 | 71 | 1001.9 |
| 20260505223024 | 82 | 169 | 10.0 | 20.0 | 0.00 | 0.00 | 0.00 | 71 | 1002.0 |
| 20260505222506 | 83 | 169 | 9.0 | 20.0 | 0.00 | 0.00 | 0.00 | 71 | 1001.9 |
| 20260505221906 | 83 | 180 | 8.0 | 19.0 | 0.00 | 0.00 | 0.00 | 69 | 1001.9 |
| 20260505221224 | 83 | 177 | 10.0 | 19.0 | 0.00 | 0.00 | 0.00 | 71 | 1001.7 |
| 20260505220603 | 83 | 166 | 10.0 | 19.0 | 0.00 | 0.00 | 0.00 | 71 | 1001.7 |
| 20260505220003 | 83 | 178 | 9.0 | 22.0 | 0.00 | 0.00 | 0.00 | 71 | 1001.7 |
| 20260505215424 | 83 | 177 | 9.0 | 22.0 | 0.00 | 0.00 | 0.00 | 70 | 1001.9 |
| 20260505214845 | 83 | 176 | 9.0 | 17.0 | 0.00 | 0.00 | 0.00 | 71 | 1001.9 |
| 20260505214245 | 83 | 175 | 10.0 | 20.0 | 0.00 | 0.00 | 0.00 | 71 | 1002.0 |
| 20260505213624 | 83 | 168 | 10.0 | 20.0 | 0.00 | 0.00 | 0.00 | 71 | 1002.1 |
| 20260505213003 | 83 | 171 | 10.0 | 18.0 | 0.00 | 0.00 | 0.00 | 71 | 1002.2 |
| 20260505212403 | 83 | 180 | 9.0 | 18.0 | 0.00 | 0.00 | 0.00 | 70 | 1002.3 |
| 20260505211803 | 84 | 176 | 9.0 | 21.0 | 0.00 | 0.00 | 0.00 | 69 | 1002.3 |
| 20260505211203 | 84 | 179 | 9.0 | 20.0 | 0.00 | 0.00 | 0.00 | 69 | 1002.4 |
| 20260505210603 | 84 | 173 | 9.0 | 20.0 | 0.00 | 0.00 | 0.00 | 68 | 1002.3 |
| 20260505210003 | 84 | 185 | 8.0 | 18.0 | 0.00 | 0.00 | 0.00 | 69 | 1002.4 |
| 20260505205403 | 84 | 194 | 9.0 | 24.0 | 0.00 | 0.00 | 0.00 | 68 | 1002.5 |
| 20260505204803 | 84 | 200 | 10.0 | 24.0 | 0.00 | 0.00 | 0.00 | 67 | 1002.7 |
| 20260505204203 | 84 | 197 | 9.0 | 22.0 | 0.00 | 0.00 | 0.00 | 67 | 1002.8 |
| 20260505203706 | 84 | 202 | 9.0 | 19.0 | 0.00 | 0.00 | 0.00 | 68 | 1002.7 |
| 20260505203003 | 84 | 196 | 9.0 | 19.0 | 0.00 | 0.00 | 0.00 | 67 | 1002.9 |
| 20260505202445 | 84 | 187 | 9.0 | 19.0 | 0.00 | 0.00 | 0.00 | 67 | 1002.8 |
| 20260505201824 | 83 | 193 | 10.0 | 21.0 | 0.00 | 0.00 | 0.00 | 68 | 1002.9 |
| 20260505201203 | 84 | 203 | 10.0 | 23.0 | 0.00 | 0.00 | 0.00 | 67 | 1002.9 |
| 20260505200624 | 84 | 209 | 10.0 | 21.0 | 0.00 | 0.00 | 0.00 | 67 | 1002.9 |
| 20260505200003 | 84 | 201 | 9.0 | 18.0 | 0.00 | 0.00 | 0.00 | 66 | 1002.9 |
| 20260505195506 | 84 | 206 | 10.0 | 19.0 | 0.00 | 0.00 | 0.00 | 68 | 1003.1 |
| 20260505194824 | 83 | 204 | 10.0 | 26.0 | 0.00 | 0.00 | 0.00 | 66 | 1003.2 |
| 20260505194203 | 83 | 197 | 9.0 | 20.0 | 0.00 | 0.00 | 0.00 | 68 | 1003.1 |
| 20260505193645 | 83 | 204 | 10.0 | 20.0 | 0.00 | 0.00 | 0.00 | 68 | 1003.2 |
| 20260505193045 | 83 | 204 | 10.0 | 15.0 | 0.00 | 0.00 | 0.00 | 67 | 1003.1 |
| 20260505192403 | 82 | 191 | 10.0 | 22.0 | 0.00 | 0.00 | 0.00 | 69 | 1003.4 |
| 20260505191803 | 83 | 199 | 9.0 | 19.0 | 0.00 | 0.00 | 0.00 | 69 | 1003.3 |
| 20260505191203 | 82 | 194 | 9.0 | 19.0 | 0.00 | 0.00 | 0.00 | 69 | 1003.4 |
| 20260505190624 | 82 | 188 | 9.0 | 21.0 | 0.00 | 0.00 | 0.00 | 70 | 1003.4 |
| 20260505190024 | 82 | 208 | 10.0 | 25.0 | 0.00 | 0.00 | 0.00 | 69 | 1003.4 |
| 20260505185445 | 82 | 216 | 13.0 | 25.0 | 0.00 | 0.00 | 0.00 | 69 | 1003.4 |
| 20260505184803 | 82 | 210 | 12.0 | 25.0 | 0.00 | 0.00 | 0.00 | 70 | 1003.4 |
| 20260505184203 | 81 | 199 | 10.0 | 24.0 | 0.00 | 0.00 | 0.00 | 71 | 1003.5 |
| 20260505183603 | 81 | 203 | 9.0 | 19.0 | 0.00 | 0.00 | 0.00 | 71 | 1003.6 |
| 20260505183003 | 81 | 210 | 11.0 | 24.0 | 0.00 | 0.00 | 0.00 | 71 | 1003.7 |
| 20260505182403 | 81 | 208 | 10.0 | 24.0 | 0.00 | 0.00 | 0.00 | 70 | 1003.8 |
| 20260505181824 | 80 | 217 | 12.0 | 25.0 | 0.00 | 0.00 | 0.00 | 71 | 1003.8 |
| 20260505181203 | 80 | 217 | 13.0 | 25.0 | 0.00 | 0.00 | 0.00 | 70 | 1003.9 |
| 20260505180624 | 80 | 208 | 12.0 | 24.0 | 0.00 | 0.00 | 0.00 | 71 | 1003.9 |
| 20260505180003 | 79 | 206 | 13.0 | 29.0 | 0.00 | 0.00 | 0.00 | 72 | 1004.1 |
| 20260505175403 | 79 | 205 | 13.0 | 25.0 | 0.00 | 0.00 | 0.00 | 72 | 1004.0 |
| 20260505174824 | 79 | 202 | 12.0 | 31.0 | 0.00 | 0.00 | 0.00 | 72 | 1004.2 |
| 20260505174203 | 79 | 207 | 11.0 | 24.0 | 0.00 | 0.00 | 0.00 | 72 | 1004.3 |
| 20260505173645 | 79 | 217 | 11.0 | 26.0 | 0.00 | 0.00 | 0.00 | 73 | 1004.4 |
| 20260505173045 | 79 | 216 | 14.0 | 26.0 | 0.00 | 0.00 | 0.00 | 72 | 1004.4 |
| 20260505172445 | 79 | 209 | 13.0 | 26.0 | 0.00 | 0.00 | 0.00 | 72 | 1004.2 |
| 20260505171803 | 79 | 201 | 12.0 | 26.0 | 0.00 | 0.00 | 0.00 | 73 | 1004.1 |
| 20260505171203 | 78 | 205 | 13.0 | 26.0 | 0.00 | 0.00 | 0.00 | 73 | 1004.1 |
| 20260505170624 | 78 | 213 | 13.0 | 22.0 | 0.00 | 0.00 | 0.00 | 74 | 1004.1 |
| 20260505170024 | 78 | 213 | 13.0 | 28.0 | 0.00 | 0.00 | 0.00 | 75 | 1004.1 |
| 20260505165403 | 78 | 214 | 13.0 | 28.0 | 0.00 | 0.00 | 0.00 | 75 | 1004.1 |
| 20260505164803 | 77 | 213 | 14.0 | 28.0 | 0.00 | 0.00 | 0.00 | 76 | 1004.1 |
| 20260505164306 | 77 | 211 | 14.0 | 28.0 | 0.00 | 0.00 | 0.00 | 76 | 1004.1 |
| 20260505163603 | 76 | 208 | 13.0 | 28.0 | 0.00 | 0.00 | 0.00 | 77 | 1004.4 |
| 20260505163003 | 76 | 211 | 15.0 | 29.0 | 0.00 | 0.00 | 0.00 | 77 | 1004.5 |
| 20260505162403 | 76 | 211 | 14.0 | 29.0 | 0.00 | 0.00 | 0.00 | 77 | 1004.6 |
| 20260505161803 | 76 | 220 | 13.0 | 24.0 | 0.00 | 0.00 | 0.00 | 78 | 1004.5 |
| 20260505161203 | 76 | 213 | 12.0 | 33.0 | 0.00 | 0.00 | 0.00 | 78 | 1004.5 |
| 20260505160603 | 76 | 211 | 15.0 | 33.0 | 0.00 | 0.00 | 0.00 | 78 | 1004.1 |
| 20260505153003 | 74 | 211 | 15.0 | 31.0 | 0.00 | 0.00 | 0.00 | 80 | 1004.5 |
| 20260505152445 | 74 | 210 | 14.0 | 29.0 | 0.00 | 0.00 | 0.00 | 80 | 1004.3 |
| 20260505151803 | 74 | 211 | 12.0 | 29.0 | 0.00 | 0.00 | 0.00 | 80 | 1004.4 |
| 20260505151203 | 74 | 209 | 12.0 | 26.0 | 0.00 | 0.00 | 0.00 | 81 | 1004.4 |
| 20260505150603 | 74 | 210 | 12.0 | 22.0 | 0.00 | 0.00 | 0.00 | 81 | 1004.4 |
| 20260505140603 | 72 | 195 | 9.0 | 18.0 | 0.00 | 0.00 | 0.00 | 84 | 1004.2 |